Location: Unspecified
(0.0000°N, 0.0000°E)
Time: 22:43:56
(UTC+02:00)

ISS - All Passes

Search period start: 18 April 2014 00:00
Search period end: 28 April 2014 00:00
Orbit: 414 x 419 km, 51.6° (Epoch: 18 April)

Date Brightness Start Highest point End Pass type
(mag) Time Alt. Az. Time Alt. Az. Time Alt. Az.
18 Apr - 03:01:48 10° NW 03:04:59 43° SW 03:08:11 10° SSE night (unlit)
18 Apr - 14:37:35 10° SW 14:40:54 71° NW 14:44:12 10° NNE daylight
19 Apr - 02:13:25 10° NNW 02:16:44 70° NE 02:20:03 10° SE night (unlit)
19 Apr - 13:49:27 10° SSW 13:52:37 42° SE 13:55:47 10° NE daylight
20 Apr - 01:25:33 10° N 01:28:26 27° NE 01:31:20 10° ESE night (unlit)
20 Apr - 13:01:55 10° S 13:04:18 18° SE 13:06:40 10° E daylight
20 Apr - 14:39:04 10° W 14:40:50 14° NW 14:42:36 10° NNW daylight
21 Apr - 00:38:37 10° NNE 00:40:05 12° NE 00:41:32 10° E night (unlit)
21 Apr - 02:14:03 10° WNW 02:16:37 20° SW 02:19:11 10° S night (unlit)
21 Apr - 13:49:29 10° WSW 13:52:28 30° NW 13:55:26 10° N daylight
22 Apr - 01:25:00 10° NW 01:28:14 49° SW 01:31:28 10° SSE night (unlit)
22 Apr - 13:00:44 10° SW 13:04:04 81° NW 13:07:22 10° NNE daylight
23 Apr - 00:36:31 10° NNW 00:39:48 61° NE 00:43:06 10° SE night (unlit)
23 Apr - 12:12:31 10° SSW 12:15:37 37° SE 12:18:43 10° ENE daylight
23 Apr - 23:48:34 10° N 23:51:20 24° NE 23:54:07 10° ESE night (unlit)
24 Apr - 01:27:17 10° WSW 01:27:53 10° SW 01:28:29 10° SW night (unlit)
24 Apr - 11:24:57 10° SSE 11:27:07 16° SE 11:29:17 10° E daylight
24 Apr - 13:01:36 10° W 13:03:39 15° NW 13:05:41 10° NNW daylight
24 Apr - 23:01:53 10° NE 23:02:49 11° NE 23:03:44 10° ENE night (unlit)
25 Apr - 00:36:38 10° WNW 00:39:21 23° SW 00:42:04 10° S night (unlit)
25 Apr - 12:12:03 10° WSW 12:15:07 35° NW 12:18:10 10° NNE daylight
25 Apr - 23:47:31 10° NW 23:50:47 57° SW 23:54:04 10° SSE night (unlit)
26 Apr - 11:23:13 10° SW 11:26:33 86° SE 11:29:51 10° NE daylight
26 Apr - 22:58:57 10° NNW 23:02:12 51° NE 23:05:27 10° SE night (unlit)
27 Apr - 10:34:55 10° S 10:37:56 32° SE 10:40:56 10° ENE daylight
27 Apr - 22:10:58 10° N 22:13:34 21° NE 22:16:10 10° ESE visible
27 Apr - 23:48:45 10° WSW 23:50:05 12° SW 23:51:25 10° SSW night (unlit)
